Flag for Australia Weather past 2 weeks in Brisbane, Queensland, Australia

Now
72 °F

Passing clouds.


Feels Like: 77 °F
Forecast: 44 / 68 °F
Wind: 9 mph from North

Location: Brisbane Airport M. O

Current Time: Jul 6, 2015 at 2:57:36 PM

Latest Report: Jul 6, 2015 at 2:30 PM


Visibility: N/A

Pressure: 29.98 "Hg

Humidity: 47%

Dew point: 50 °F

Location of BrisbaneLocation

Historic Weather in Brisbane — Graph

°F

Brisbane temperature yesterday

Maximum temperature yesterday: 70 °F (at 11:00 AM)
Minimum temperature yesterday: 48 °F (at 6:30 AM)
Average temperature yesterday: 58 °F

Past Weeks' High & Low Weather Summary

 TemperatureHumidityPressure
High73 °F (Jul 1, 1:30 PM)100% (Jun 25, 3:00 AM)30.45 "Hg (Jun 25, 3:00 AM)
Low43 °F (Jul 3, 2:00 AM)30% (Jul 2, 3:30 PM)30.01 "Hg (Jul 6, 1:00 PM)
Average60 °F78%30.24 "Hg
* Reported Jun 21 1:00 PM — Jul 6 1:00 PM, Brisbane, Weather by CustomWeather, © 2015

Note: Actual official high and low records may vary slightly from our data, if they occured in-between our weather recording intervals... More about our weather records

Advertising

Brisbane weather history for previous 24 hours

 ConditionsComfort  
Time TempWeatherWind HumidityBarometerVisibility
1:00 PM
Mon, Jul 6
70 °FPassing clouds.12 mph50%30.01 "HgN/A
12:30 PM70 °FPassing clouds.10 mph53%30.04 "HgN/A
12:00 PM72 °FPassing clouds.9 mph47%30.04 "HgN/A
11:30 AM70 °FPassing clouds.10 mph50%30.07 "HgN/A
11:00 AM70 °FSunny.9 mph50%30.07 "Hg10 mi
10:30 AM68 °FSunny.6 mph56%30.09 "Hg10 mi
10:00 AM66 °FPassing clouds.5 mph56%30.09 "HgN/A
9:30 AM63 °FPassing clouds.5 mph68%30.09 "HgN/A
9:00 AM57 °FPassing clouds.5 mph82%30.09 "HgN/A
8:30 AM54 °FPassing clouds.2 mph88%30.09 "HgN/A
8:00 AM52 °FPassing clouds.3 mph88%30.09 "HgN/A
7:30 AM50 °FPassing clouds.6 mph94%30.09 "HgN/A
7:00 AM48 °FPassing clouds.8 mph94%30.09 "HgN/A
6:30 AM50 °FPassing clouds.7 mph88%30.09 "HgN/A
6:00 AM50 °FSunny.10 mph94%30.09 "Hg10 mi
5:30 AM50 °FClear.8 mph88%30.09 "Hg10 mi
5:00 AM50 °FClear.7 mph94%30.09 "Hg10 mi
4:30 AM50 °FClear.6 mph94%30.09 "Hg10 mi
4:00 AM48 °FClear.6 mph100%30.09 "Hg10 mi
3:30 AM54 °FClear.6 mph88%30.09 "Hg10 mi
3:00 AM54 °FClear.6 mph88%30.09 "Hg10 mi
2:30 AM54 °FClear.2 mph88%30.09 "Hg10 mi
2:00 AM54 °FClear.5 mph94%30.09 "Hg10 mi
1:30 AM55 °FClear.3 mph88%30.12 "Hg10 mi
1:00 AM55 °FClear.5 mph88%30.12 "Hg10 mi
12:30 AM55 °FClear.6 mph88%30.12 "Hg10 mi
12:00 AM55 °FClear.7 mph88%30.12 "Hg10 mi
11:00 PM
Sun, Jul 5
55 °FClear.6 mph88%30.12 "Hg10 mi
10:00 PM55 °FClear.3 mph88%30.12 "Hg10 mi
9:30 PM57 °FClear.5 mph88%30.15 "Hg10 mi
9:00 PM59 °FClear.5 mph82%30.12 "Hg10 mi
8:30 PM57 °FClear.5 mph94%30.12 "Hg10 mi
8:00 PM59 °FClear.8 mph88%30.12 "Hg10 mi
7:30 PM59 °FClear.9 mph88%30.12 "Hg10 mi
7:00 PM59 °FClear.10 mph88%30.12 "Hg10 mi
6:30 PM59 °FClear.8 mph82%30.12 "Hg10 mi
6:00 PM61 °FPassing clouds.5 mph72%30.12 "HgN/A
5:30 PM63 °FPassing clouds.6 mph56%30.09 "HgN/A
5:00 PM64 °FPassing clouds.8 mph52%30.09 "HgN/A
4:00 PM70 °FPassing clouds.10 mph40%30.09 "HgN/A
3:30 PM70 °FPassing clouds.8 mph43%30.09 "HgN/A
3:00 PM68 °FPassing clouds.7 mph60%30.09 "HgN/A
2:30 PM68 °FScattered clouds.9 mph64%30.09 "HgN/A
Weather by CustomWeather, © 2015

See weather overviewHow to use our weather pages